Date,TemperatureHighF,TemperatureAvgF,TemperatureLowF,DewpointHighF,DewpointAvgF,DewpointLowF,HumidityHigh,HumidityAvg,HumidityLow,PressureMaxIn,PressureMinIn,WindSpeedMaxMPH,WindSpeedAvgMPH,GustSpeedMaxMPH,PrecipitationSumIn
2013-1-1,20,12,6,7,0,-4,69,58,40,30.23,30.10,8,2,13,0.00
2013-1-2,35,21,8,21,9,-3,76,60,43,30.16,29.99,8,1,11,0.00
2013-1-3,29,23,12,24,13,3,83,67,52,30.30,30.05,10,2,16,0.00
2013-1-4,38,24,11,23,14,2,80,64,46,30.26,29.80,8,2,18,0.00
2013-1-5,38,31,21,33,23,13,84,73,56,30.16,29.90,8,2,16,0.01
2013-1-6,29,22,15,22,12,6,82,67,48,30.26,29.93,7,1,13,0.00
2013-1-7,43,31,17,26,18,7,84,59,37,30.25,30.00,10,2,18,0.01
2013-1-8,47,37,30,30,24,19,76,60,47,30.04,29.92,5,1,12,0.00
2013-1-9,46,38,28,34,26,19,84,65,43,30.42,29.97,9,2,15,0.00
2013-1-10,41,34,26,34,25,17,85,70,44,30.41,29.74,6,1,13,0.35
2013-1-11,55,45,38,47,38,32,85,77,58,29.74,29.56,8,2,15,0.02
2013-1-12,53,34,20,45,23,8,84,65,52,29.99,29.59,10,3,17,0.00
2013-1-13,20,16,11,16,4,-1,84,61,51,30.24,29.88,9,3,15,0.00
2013-1-14,31,16,7,11,4,-2,76,58,34,30.42,30.23,5,1,11,0.00
2013-1-15,35,21,10,20,6,0,83,56,29,30.37,30.07,3,0,7,0.00
2013-1-16,39,29,16,32,16,1,83,57,42,30.06,29.81,8,2,20,0.00
2013-1-17,36,28,21,28,12,2,75,53,31,30.37,30.05,10,3,15,0.00
2013-1-18,51,38,23,29,21,12,70,51,37,30.35,29.85,12,3,21,0.00
2013-1-19,55,42,21,35,26,1,67,52,39,30.08,29.73,15,4,26,0.00
2013-1-20,20,14,10,8,0,-4,72,53,38,30.31,30.08,12,4,21,0.00
2013-1-21,13,7,1,2,-9,-20,64,48,27,30.28,30.17,11,4,22,0.00
2013-1-22,32,8,-2,17,-10,-15,63,45,29,30.37,30.01,6,1,13,0.00
2013-1-23,32,19,11,7,-1,-8,58,42,31,30.37,30.05,11,3,23,0.00
2013-1-24,21,14,4,2,-8,-14,48,37,23,30.59,30.21,8,2,17,0.00
2013-1-25,39,26,15,15,7,-3,72,46,28,30.21,29.93,11,3,21,0.00
2013-1-26,33,21,8,9,2,-1,67,46,27,30.35,30.19,6,1,11,0.00
2013-1-27,43,32,28,39,21,5,84,65,37,30.24,29.76,5,1,11,0.01
2013-1-28,49,43,38,44,38,33,85,82,77,29.89,29.63,5,2,13,0.04
2013-1-29,62,51,36,55,44,31,85,78,68,29.63,29.40,8,3,16,0.86
2013-1-30,36,27,14,32,20,4,85,76,61,29.72,29.25,12,1,20,0.26
2013-1-31,16,9,0,11,-2,-14,80,62,52,30.24,29.72,10,3,21,0.00